Weather History for Erie, CO

Change the Weather History Date:

Sunday, October 6, 2013

  Actual Average (KBJC) Record (KBJC)
Temperature  
Mean Temperature 50 °F -  
Max Temperature 68 °F 67 °F 84 °F (2007)
Min Temperature 32 °F 43 °F 30 °F (2000)
Degree Days  
Heating Degree Days 15    
Growing Degree Days 0 (Base 50)    
Moisture  
Dew Point 30 °F    
Average Humidity 52    
Maximum Humidity 92    
Minimum Humidity 22    
Precipitation  
Precipitation 0.00 in - - ()
Sea Level Pressure  
Sea Level Pressure 30.24 in    
Wind  
Wind Speed 2 mph (SSE)    
Max Wind Speed 7 mph    
Max Gust Speed -    
Visibility 10 miles    
Events      
Averages and records for this station are not official NWS values.
T = Trace of Precipitation, MM = Missing Value Source: NWS Daily Summary

Daily Weather History Graph

Daily Weather History Graph

Search for Another Location

Airport:

Trip Planner

Search our weather history database for the weather conditions in past years. The results will help you decide how hot, cold, wet, or windy it might be!

Date:

Astronomy

Oct. 06, 2013 Rise Set
Actual Time 7:01 AM MDT 6:33 PM MDT
Civil Twilight 6:34 AM MDT 7:01 PM MDT
Nautical Twilight 6:03 AM MDT 7:32 PM MDT
Astronomical Twilight 5:31 AM MDT 8:03 PM MDT
Moon 8:48 AM MDT (10/6) 7:35 PM MDT (10/6)
Length of Visible Light 12h 26m
Length of Day
11h 32m
Waxing Crescent, 4% of the Moon is Illuminated
Oct 6
Waxing Crescent
Oct 11
First Quarter
Oct 18
Full
Oct 26
Last Quarter
Nov 3
New

Hourly Weather History & Observations

Time (MDT) Temp. Windchill Dew Point Humidity Pressure Visibility Wind Dir Wind Speed Gust Speed Precip Events Conditions
12:14 AM 41.9 °F 39.0 °F 21.6 °F 44% 30.20 in 10.0 mi SSW 4.6 mph - N/A   Clear
12:34 AM 39.9 °F - 23.2 °F 51% 30.19 in 10.0 mi Calm Calm - N/A   Clear
12:54 AM 39.9 °F 37.8 °F 24.6 °F 54% 30.18 in 10.0 mi SSW 3.5 mph - N/A   Clear
1:14 AM 40.1 °F 38.0 °F 23.9 °F 52% 30.19 in 10.0 mi South 3.5 mph - N/A   Clear
1:34 AM 41.5 °F - 22.1 °F 46% 30.19 in 10.0 mi Calm Calm - N/A   Clear
1:54 AM 41.2 °F 39.2 °F 22.1 °F 47% 30.19 in 10.0 mi SSE 3.5 mph - N/A   Clear
2:14 AM 38.3 °F - 26.2 °F 62% 30.20 in 10.0 mi Calm Calm - N/A   Clear
2:34 AM 37.6 °F - 27.1 °F 66% 30.20 in 10.0 mi Calm Calm - N/A   Clear
2:54 AM 36.7 °F - 30.0 °F 77% 30.20 in 10.0 mi Calm Calm - N/A   Clear
3:14 AM 35.2 °F - 30.0 °F 81% 30.20 in 10.0 mi Calm Calm - N/A   Clear
3:34 AM 34.7 °F - 29.1 °F 80% 30.20 in 10.0 mi Calm Calm - N/A   Clear
3:54 AM 36.5 °F - 28.4 °F 72% 30.22 in 10.0 mi Calm Calm - N/A   Clear
4:14 AM 34.0 °F - 28.8 °F 81% 30.22 in 10.0 mi Calm Calm - N/A   Clear
4:34 AM 34.7 °F - 28.9 °F 79% 30.22 in 10.0 mi Calm Calm - N/A   Clear
4:54 AM 34.9 °F - 28.8 °F 78% 30.23 in 10.0 mi Calm Calm - N/A   Clear
5:14 AM 33.8 °F - 30.0 °F 86% 30.23 in 10.0 mi Calm Calm - N/A   Clear
5:34 AM 33.4 °F - 29.8 °F 87% 30.25 in 10.0 mi Calm Calm - N/A   Clear
5:54 AM 32.0 °F 26.4 °F 29.8 °F 92% 30.25 in 10.0 mi SSW 5.8 mph - N/A   Clear
6:14 AM 33.4 °F - 30.0 °F 87% 30.25 in 10.0 mi Calm Calm - N/A   Clear
6:34 AM 34.5 °F - 29.3 °F 81% 30.25 in 10.0 mi Calm Calm - N/A   Clear
6:54 AM 34.7 °F - 29.3 °F 81% 30.25 in 10.0 mi Calm Calm - N/A   Clear
7:14 AM 36.1 °F - 28.4 °F 73% 30.25 in 10.0 mi Calm Calm - N/A   Clear
7:34 AM 36.5 °F - 29.5 °F 76% 30.25 in 10.0 mi Calm Calm - N/A   Clear
7:54 AM 38.7 °F 35.2 °F 30.0 °F 71% 30.25 in 10.0 mi South 4.6 mph - N/A   Clear
8:14 AM 42.1 °F 39.2 °F 31.5 °F 66% 30.26 in 10.0 mi South 4.6 mph - N/A   Clear
8:34 AM 45.5 °F 44.2 °F 31.5 °F 58% 30.26 in 10.0 mi SSW 3.5 mph - N/A   Clear
8:54 AM 48.7 °F - 31.1 °F 51% 30.26 in 10.0 mi Calm Calm - N/A   Clear
9:14 AM 51.8 °F - 30.0 °F 43% 30.26 in 10.0 mi Calm Calm - N/A   Clear
9:34 AM 55.2 °F - 25.7 °F 32% 30.26 in 10.0 mi SSE 4.6 mph - N/A   Clear
9:54 AM 56.3 °F - 24.8 °F 30% 30.26 in 10.0 mi SSE 5.8 mph - N/A   Clear
10:14 AM 57.7 °F - 24.8 °F 28% 30.27 in 10.0 mi SSE 4.6 mph - N/A   Clear
10:34 AM 58.8 °F - 22.5 °F 25% 30.28 in 10.0 mi ESE 4.6 mph - N/A   Clear
10:54 AM 59.0 °F - 22.6 °F 25% 30.28 in 10.0 mi South 4.6 mph - N/A   Clear
11:14 AM 60.4 °F - 23.5 °F 24% 30.27 in 10.0 mi SE 3.5 mph - N/A   Clear
11:34 AM 61.2 °F - 23.5 °F 24% 30.26 in 10.0 mi Calm Calm - N/A   Clear
11:54 AM 61.5 °F - 23.5 °F 23% 30.27 in 10.0 mi Calm Calm - N/A   Clear
12:14 PM 61.9 °F - 22.8 °F 22% 30.26 in 10.0 mi Calm Calm - N/A   Clear
12:34 PM 62.8 °F - 24.4 °F 23% 30.26 in 10.0 mi Calm Calm - N/A   Clear
12:54 PM 63.7 °F - 26.2 °F 24% 30.25 in 10.0 mi Calm Calm - N/A   Clear
1:14 PM 64.4 °F - 28.0 °F 25% 30.25 in 10.0 mi SSW 3.5 mph - N/A   Clear
1:34 PM 65.3 °F - 29.1 °F 26% 30.24 in 10.0 mi SSE 4.6 mph - N/A   Clear
1:54 PM 66.2 °F - 28.4 °F 24% 30.24 in 10.0 mi Calm Calm - N/A   Clear
2:14 PM 66.7 °F - 30.7 °F 26% 30.23 in 10.0 mi ESE 5.8 mph - N/A   Clear
2:34 PM 67.1 °F - 30.4 °F 25% 30.23 in 10.0 mi East 3.5 mph - N/A   Clear
2:54 PM 67.6 °F - 31.8 °F 26% 30.23 in 10.0 mi East 6.9 mph - N/A   Clear
3:14 PM 68.0 °F - 30.6 °F 25% 30.23 in 10.0 mi East 5.8 mph - N/A   Clear
3:34 PM 67.8 °F - 31.1 °F 26% 30.23 in 10.0 mi Calm Calm - N/A   Clear
3:54 PM 68.4 °F - 30.6 °F 25% 30.23 in 10.0 mi East 3.5 mph - N/A   Clear
4:14 PM 68.4 °F - 29.8 °F 24% 30.23 in 10.0 mi East 3.5 mph - N/A   Clear
4:34 PM 68.0 °F - 28.2 °F 23% 30.23 in 10.0 mi Calm Calm - N/A   Clear
4:54 PM 67.8 °F - 28.4 °F 23% 30.23 in 10.0 mi Calm Calm - N/A   Clear
5:14 PM 68.0 °F - 29.3 °F 24% 30.23 in 10.0 mi Calm Calm - N/A   Clear
5:34 PM 67.1 °F - 29.5 °F 25% 30.23 in 10.0 mi East 3.5 mph - N/A   Clear
5:54 PM 66.9 °F - 28.8 °F 24% 30.24 in 10.0 mi Calm Calm - N/A   Clear
6:14 PM 63.5 °F - 36.9 °F 37% 30.24 in 10.0 mi ESE 4.6 mph - N/A   Clear
6:34 PM 60.1 °F - 36.5 °F 41% 30.24 in 10.0 mi SE 3.5 mph - N/A   Clear
6:54 PM 57.0 °F - 36.9 °F 47% 30.24 in 10.0 mi SSE 3.5 mph - N/A   Clear
7:14 PM 55.2 °F - 40.5 °F 58% 30.24 in 10.0 mi Calm Calm - N/A   Clear
7:34 PM 52.5 °F - 40.8 °F 64% 30.24 in 10.0 mi WSW 3.5 mph - N/A   Clear
7:54 PM 50.4 °F - 39.9 °F 67% 30.25 in 10.0 mi SSW 4.6 mph - N/A   Clear
8:14 PM 51.1 °F - 39.2 °F 64% 30.25 in 10.0 mi SSW 3.5 mph - N/A   Clear
8:34 PM 50.9 °F - 38.3 °F 62% 30.25 in 10.0 mi Calm Calm - N/A   Clear
8:54 PM 50.4 °F - 38.7 °F 64% 30.25 in 10.0 mi South 3.5 mph - N/A   Clear
9:14 PM 50.7 °F - 37.8 °F 61% 30.25 in 10.0 mi Calm Calm - N/A   Clear
9:34 PM 50.4 °F - 37.4 °F 61% 30.25 in 10.0 mi South 3.5 mph - N/A   Clear
9:54 PM 47.3 °F - 38.5 °F 71% 30.24 in 10.0 mi SSW 3.5 mph - N/A   Clear
10:14 PM 45.5 °F 44.2 °F 39.2 °F 79% 30.24 in 10.0 mi SSW 3.5 mph - N/A   Clear
10:34 PM 46.0 °F 44.8 °F 38.7 °F 75% 30.23 in 10.0 mi SSW 3.5 mph - N/A   Clear
10:54 PM 45.9 °F 44.6 °F 38.7 °F 76% 30.23 in 10.0 mi South 3.5 mph - N/A   Clear
11:14 PM 43.9 °F 42.3 °F 38.5 °F 81% 30.23 in 10.0 mi West 3.5 mph - N/A   Clear
11:34 PM 42.8 °F - 38.8 °F 86% 30.22 in 10.0 mi Calm Calm - N/A   Clear
11:54 PM 41.9 °F 39.0 °F 38.5 °F 88% 30.22 in 10.0 mi SSW 4.6 mph - N/A   Clear